EDW39OI LSZH-LGKO

Flight info

Callsign EDW39OI
Flight time N/A
Altitude 37000
Route DEGES3W/28 DEGES Z2 TUNUM Z204 GEDSO DCT VEKEN DCT RUDIK DCT MEDUX UM867 KOGAT DCT ERANA DCT TSL DCT MES UN139 LURUS UL995 KOPAR
Aircraft A320/M-SDE3FGHIRWY/LB1

Departure

Time N/A
Airport Zürich Airport (LSZH)

Arrival

Time 2026-04-28 20:55
Airport Kos International Airport "Ippokratis" (LGKO)
Time Latitude Longitude Altitude Speed Heading
2026-04-28 18:52 46.89453 12.42330 37139 ft 497 kts 117°
2026-04-28 18:52 46.87902 12.46896 37142 ft 501 kts 117°
2026-04-28 18:53 46.84248 12.57612 37125 ft 507 kts 117°
2026-04-28 18:53 46.81076 12.66869 37104 ft 511 kts 117°
2026-04-28 18:54 46.77891 12.76156 37089 ft 513 kts 118°
2026-04-28 18:54 46.74683 12.85469 37095 ft 514 kts 117°
2026-04-28 18:55 46.71974 12.93282 37098 ft 515 kts 117°
2026-04-28 18:55 46.68221 13.04099 37083 ft 514 kts 117°
2026-04-28 18:56 46.64986 13.13393 37087 ft 515 kts 117°
2026-04-28 18:56 46.61730 13.22690 37058 ft 516 kts 117°
2026-04-28 18:57 46.58465 13.31968 37066 ft 514 kts 118°
2026-04-28 18:57 46.54866 13.40914 37088 ft 512 kts 128°
2026-04-28 18:58 46.51343 13.47816 37085 ft 512 kts 128°
2026-04-28 18:58 46.46372 13.57532 37066 ft 512 kts 128°
2026-04-28 18:59 46.42841 13.64423 37066 ft 512 kts 128°
2026-04-28 18:59 46.38589 13.72693 37062 ft 512 kts 128°
2026-04-28 19:00 46.34317 13.80988 37063 ft 514 kts 128°
2026-04-28 19:00 46.30043 13.89264 37067 ft 513 kts 128°
2026-04-28 19:01 46.25760 13.97528 37065 ft 513 kts 129°
2026-04-28 19:01 46.21470 14.05766 37063 ft 512 kts 129°
2026-04-28 19:02 46.17189 14.13982 37100 ft 512 kts 129°
2026-04-28 19:02 46.12903 14.22178 37112 ft 512 kts 129°
2026-04-28 19:03 46.08609 14.30367 37117 ft 512 kts 129°
2026-04-28 19:03 46.04310 14.38533 37115 ft 510 kts 129°
2026-04-28 19:04 46.00050 14.46606 37103 ft 510 kts 129°
2026-04-28 19:04 45.95751 14.54735 37094 ft 510 kts 129°
2026-04-28 19:05 45.91453 14.62835 37083 ft 510 kts 129°
2026-04-28 19:05 45.87147 14.70922 37081 ft 510 kts 129°
2026-04-28 19:06 45.82833 14.79003 37086 ft 510 kts 129°
2026-04-28 19:06 45.78517 14.87073 37088 ft 510 kts 129°
2026-04-28 19:07 45.74191 14.95130 37086 ft 510 kts 129°
2026-04-28 19:07 45.69861 15.03178 37087 ft 510 kts 129°
2026-04-28 19:08 45.65529 15.11202 37090 ft 510 kts 129°
2026-04-28 19:08 45.61192 15.19216 37091 ft 510 kts 130°
2026-04-28 19:09 45.56845 15.27230 37091 ft 510 kts 130°
2026-04-28 19:09 45.52530 15.35176 37067 ft 510 kts 130°
2026-04-28 19:10 45.48178 15.43142 37081 ft 508 kts 130°
2026-04-28 19:10 45.43824 15.51078 37085 ft 508 kts 130°
2026-04-28 19:11 45.39469 15.59008 37084 ft 508 kts 130°
2026-04-28 19:11 45.35112 15.66934 37096 ft 508 kts 130°
2026-04-28 19:12 45.30750 15.74844 37093 ft 508 kts 130°
2026-04-28 19:12 45.26378 15.82735 37092 ft 509 kts 130°
2026-04-28 19:13 45.21999 15.90613 37089 ft 508 kts 130°
2026-04-28 19:13 45.17621 15.98461 37102 ft 508 kts 130°
2026-04-28 19:14 45.13258 16.06255 37092 ft 508 kts 130°
2026-04-28 19:14 45.08868 16.14110 37093 ft 508 kts 130°
2026-04-28 19:15 45.04480 16.21941 37092 ft 508 kts 130°
2026-04-28 19:15 45.00821 16.28441 37094 ft 508 kts 130°
2026-04-28 19:16 44.95663 16.37565 37097 ft 508 kts 130°
2026-04-28 19:16 44.91239 16.45345 37094 ft 508 kts 130°
2026-04-28 19:17 44.86808 16.53098 37097 ft 508 kts 130°
2026-04-28 19:17 44.82368 16.60840 37091 ft 508 kts 130°
2026-04-28 19:18 44.77946 16.68544 37097 ft 508 kts 130°
2026-04-28 19:18 44.73505 16.76290 37101 ft 508 kts 130°
2026-04-28 19:19 44.69065 16.83999 37104 ft 506 kts 130°
2026-04-28 19:19 44.64626 16.91663 37101 ft 506 kts 131°
2026-04-28 19:20 44.60178 16.99316 37101 ft 506 kts 131°
2026-04-28 19:20 44.55729 17.06964 37099 ft 506 kts 131°
2026-04-28 19:21 44.51276 17.14606 37103 ft 505 kts 131°
2026-04-28 19:21 44.46826 17.22233 37103 ft 507 kts 131°
2026-04-28 19:22 44.43114 17.28579 37108 ft 506 kts 131°
2026-04-28 19:22 44.37892 17.37462 37102 ft 506 kts 131°
2026-04-28 19:23 44.33423 17.45046 37105 ft 506 kts 131°
2026-04-28 19:23 44.28940 17.52642 37100 ft 507 kts 131°
2026-04-28 19:24 44.24448 17.60227 37098 ft 507 kts 131°
2026-04-28 19:24 44.19946 17.67811 37094 ft 508 kts 131°
2026-04-28 19:25 44.15449 17.75356 37094 ft 506 kts 131°
2026-04-28 19:25 44.10980 17.82844 37089 ft 505 kts 131°
2026-04-28 19:26 44.06480 17.90362 37085 ft 505 kts 131°
2026-04-28 19:26 44.01980 17.97857 37085 ft 505 kts 131°
2026-04-28 19:27 43.97469 18.05355 37079 ft 506 kts 131°
2026-04-28 19:27 43.92946 18.12857 37081 ft 507 kts 131°
2026-04-28 19:28 43.88428 18.20336 37081 ft 505 kts 131°
2026-04-28 19:28 43.83907 18.27785 37083 ft 505 kts 131°
2026-04-28 19:29 43.80152 18.33962 37084 ft 505 kts 131°
2026-04-28 19:29 43.74858 18.42646 37085 ft 504 kts 131°
2026-04-28 19:30 43.70325 18.50057 37083 ft 504 kts 131°
2026-04-28 19:30 43.65789 18.57455 37065 ft 504 kts 131°
2026-04-28 19:31 43.61298 18.64780 37076 ft 502 kts 131°
2026-04-28 19:31 43.56788 18.72105 37084 ft 502 kts 132°
2026-04-28 19:32 43.52244 18.79456 37083 ft 502 kts 132°
2026-04-28 19:32 43.47717 18.86780 37084 ft 502 kts 132°
2026-04-28 19:33 43.43190 18.94089 37086 ft 501 kts 131°
2026-04-28 19:33 43.38656 19.01377 37079 ft 501 kts 132°
2026-04-28 19:34 43.34119 19.08642 37085 ft 501 kts 132°
2026-04-28 19:34 43.29572 19.15909 37097 ft 501 kts 132°
2026-04-28 19:35 43.25024 19.23169 37091 ft 502 kts 132°
2026-04-28 19:35 43.20496 19.30375 37091 ft 502 kts 132°
2026-04-28 19:36 43.15906 19.37655 37098 ft 501 kts 132°
2026-04-28 19:36 43.11368 19.44829 37092 ft 502 kts 132°
2026-04-28 19:37 43.07541 19.50877 37095 ft 502 kts 132°
2026-04-28 19:37 43.02228 19.59268 37094 ft 502 kts 132°
2026-04-28 19:38 42.97651 19.66483 37099 ft 502 kts 132°
2026-04-28 19:38 42.93065 19.73672 37095 ft 502 kts 132°
2026-04-28 19:39 42.88470 19.80834 37099 ft 502 kts 133°
2026-04-28 19:39 42.83882 19.87991 37096 ft 501 kts 132°
2026-04-28 19:40 42.79297 19.95131 37102 ft 500 kts 133°
2026-04-28 19:40 42.74702 20.02250 37101 ft 500 kts 133°
2026-04-28 19:41 42.70206 20.09471 37102 ft 501 kts 130°
2026-04-28 19:41 42.65856 20.16780 37088 ft 501 kts 130°
2026-04-28 19:42 42.61475 20.24132 37093 ft 500 kts 130°
2026-04-28 19:42 42.57767 20.30242 37087 ft 501 kts 131°
2026-04-28 19:43 42.52593 20.38674 37080 ft 500 kts 131°
2026-04-28 19:43 42.48144 20.45910 37082 ft 500 kts 131°
2026-04-28 19:44 42.43704 20.53158 37079 ft 500 kts 131°
2026-04-28 19:44 42.39265 20.60398 37075 ft 500 kts 131°
2026-04-28 19:45 42.34818 20.67621 37078 ft 500 kts 131°
2026-04-28 19:45 42.30384 20.74782 37078 ft 500 kts 131°
2026-04-28 19:46 42.25925 20.81979 37095 ft 500 kts 131°
2026-04-28 19:46 42.21462 20.89177 37076 ft 500 kts 131°
2026-04-28 19:47 42.16984 20.96373 37089 ft 501 kts 131°
2026-04-28 19:47 42.12497 21.03553 37077 ft 501 kts 131°
2026-04-28 19:48 42.07606 21.10189 37079 ft 499 kts 139°
2026-04-28 19:48 42.02554 21.16596 37065 ft 499 kts 138°
2026-04-28 19:49 41.97529 21.22964 37073 ft 500 kts 138°
2026-04-28 19:49 41.92468 21.29370 37063 ft 500 kts 139°
2026-04-28 19:50 41.84863 21.38955 37064 ft 501 kts 139°
2026-04-28 19:51 41.79782 21.45341 37062 ft 501 kts 139°
2026-04-28 19:51 41.74703 21.51723 37066 ft 500 kts 139°
2026-04-28 19:52 41.69628 21.58082 37056 ft 500 kts 139°
2026-04-28 19:52 41.65409 21.63356 37060 ft 499 kts 139°
2026-04-28 19:53 41.60331 21.69680 37061 ft 499 kts 139°
2026-04-28 19:53 41.55248 21.76005 37063 ft 499 kts 139°
2026-04-28 19:54 41.50173 21.82313 37045 ft 498 kts 139°
2026-04-28 19:54 41.45104 21.88592 37067 ft 497 kts 139°
2026-04-28 19:55 41.40067 21.94815 37065 ft 497 kts 139°
2026-04-28 19:55 41.34990 22.01074 37073 ft 497 kts 139°
2026-04-28 19:56 41.29908 22.07317 37075 ft 497 kts 139°
2026-04-28 19:56 41.24819 22.13559 37084 ft 497 kts 139°
2026-04-28 19:57 41.19737 22.19778 37077 ft 497 kts 139°
2026-04-28 19:57 41.14617 22.25960 37075 ft 497 kts 141°
2026-04-28 19:58 41.09296 22.31774 37082 ft 496 kts 143°
2026-04-28 19:58 41.03864 22.37416 37083 ft 496 kts 143°
2026-04-28 19:59 40.98459 22.43106 37074 ft 496 kts 143°
2026-04-28 19:59 40.93093 22.48851 37082 ft 497 kts 143°
2026-04-28 20:00 40.87728 22.54617 37084 ft 497 kts 143°
2026-04-28 20:00 40.82357 22.60369 37084 ft 497 kts 143°
2026-04-28 20:01 40.76488 22.66607 37086 ft 497 kts 143°
2026-04-28 20:01 40.71094 22.72318 37081 ft 497 kts 143°
2026-04-28 20:02 40.65698 22.78017 37100 ft 497 kts 143°
2026-04-28 20:02 40.60309 22.83708 37107 ft 497 kts 143°
2026-04-28 20:03 40.54915 22.89394 37111 ft 497 kts 143°
2026-04-28 20:03 40.49514 22.95067 37112 ft 497 kts 143°
2026-04-28 20:04 40.44293 23.01002 37113 ft 498 kts 134°
2026-04-28 20:04 40.39541 23.07630 37107 ft 499 kts 135°
2026-04-28 20:05 40.34763 23.14225 37102 ft 498 kts 135°
2026-04-28 20:05 40.29980 23.20797 37099 ft 498 kts 135°
2026-04-28 20:06 40.25201 23.27361 37103 ft 498 kts 135°
2026-04-28 20:06 40.20435 23.33919 37103 ft 498 kts 135°
2026-04-28 20:07 40.15656 23.40489 37111 ft 498 kts 135°
2026-04-28 20:07 40.10866 23.47044 37102 ft 499 kts 135°
2026-04-28 20:08 40.06048 23.53608 37113 ft 500 kts 135°
2026-04-28 20:08 40.01263 23.60110 37114 ft 500 kts 135°
2026-04-28 20:09 39.97199 23.67406 37126 ft 501 kts 116°
2026-04-28 20:09 39.94070 23.75527 37117 ft 501 kts 120°
2026-04-28 20:10 39.90423 23.83249 37122 ft 501 kts 124°
2026-04-28 20:10 39.86518 23.90761 37124 ft 501 kts 124°
2026-04-28 20:10 39.84351 23.94297 37110 ft 498 kts 137°
2026-04-28 20:11 39.81739 23.97471 37128 ft 497 kts 139°
2026-04-28 20:11 39.79333 24.00316 38564 ft 461 kts 139°
2026-04-28 20:11 39.76944 24.03189 37899 ft 477 kts 137°
2026-04-28 20:12 39.70123 24.12247 38274 ft 481 kts 135°
2026-04-28 20:12 39.60770 24.24738 38806 ft 484 kts 135°
2026-04-28 20:12 39.51437 24.37337 39111 ft 489 kts 131°
2026-04-28 20:13 39.36381 24.67239 38929 ft 501 kts 121°
2026-04-28 20:13 39.25711 24.89787 39059 ft 499 kts 121°
2026-04-28 20:14 39.21091 24.99062 39108 ft 499 kts 132°
2026-04-28 20:14 39.16034 25.05127 39112 ft 497 kts 147°
2026-04-28 20:15 39.10913 25.08428 39103 ft 490 kts 165°
2026-04-28 20:15 39.04502 25.11420 39096 ft 495 kts 153°
2026-04-28 20:16 38.98486 25.15768 39091 ft 496 kts 154°
2026-04-28 20:16 38.92426 25.20028 38931 ft 496 kts 154°
2026-04-28 20:16 38.89389 25.22145 38104 ft 497 kts 154°
2026-04-28 20:17 38.86392 25.24234 37382 ft 496 kts 153°
2026-04-28 20:17 38.83316 25.26379 37111 ft 497 kts 153°
2026-04-28 20:17 38.80283 25.28497 37091 ft 497 kts 153°
2026-04-28 20:18 38.74202 25.32761 37097 ft 499 kts 153°
2026-04-28 20:18 38.68146 25.37003 37092 ft 499 kts 153°
2026-04-28 20:19 38.62054 25.41253 37089 ft 498 kts 153°
2026-04-28 20:19 38.55960 25.45486 37089 ft 498 kts 153°
2026-04-28 20:20 38.49864 25.49714 37086 ft 498 kts 153°
2026-04-28 20:20 38.43781 25.53938 37069 ft 498 kts 153°
2026-04-28 20:21 38.37685 25.58171 37081 ft 499 kts 153°
2026-04-28 20:21 38.31580 25.62384 37081 ft 499 kts 153°
2026-04-28 20:22 38.25471 25.66584 37072 ft 499 kts 153°
2026-04-28 20:22 38.19353 25.70793 37062 ft 500 kts 153°
2026-04-28 20:23 38.13238 25.75004 37073 ft 500 kts 153°
2026-04-28 20:23 38.07109 25.79203 37065 ft 500 kts 154°
2026-04-28 20:24 38.00985 25.83387 36889 ft 498 kts 153°
2026-04-28 20:24 37.97972 25.85451 36040 ft 498 kts 153°
2026-04-28 20:24 37.94926 25.87534 35159 ft 498 kts 152°
2026-04-28 20:24 37.91838 25.89641 34263 ft 498 kts 152°
2026-04-28 20:25 37.88839 25.91682 33313 ft 497 kts 152°
2026-04-28 20:25 37.85780 25.93761 32283 ft 497 kts 152°
2026-04-28 20:25 37.82740 25.95827 31233 ft 497 kts 152°
2026-04-28 20:25 37.79692 25.97895 30156 ft 497 kts 151°
2026-04-28 20:26 37.76645 25.99961 28852 ft 498 kts 151°
2026-04-28 20:26 37.73587 26.02031 27482 ft 499 kts 151°
2026-04-28 20:26 37.70515 26.04110 26109 ft 502 kts 151°
2026-04-28 20:26 37.67459 26.06179 25203 ft 495 kts 151°
2026-04-28 20:27 37.64449 26.08214 24328 ft 488 kts 151°
2026-04-28 20:27 37.61443 26.10242 23193 ft 489 kts 151°
2026-04-28 20:27 37.58460 26.12256 22204 ft 484 kts 151°
2026-04-28 20:27 37.55502 26.14249 21332 ft 478 kts 152°
2026-04-28 20:28 37.52544 26.16126 20490 ft 473 kts 154°
2026-04-28 20:28 37.49583 26.17852 19692 ft 467 kts 155°
2026-04-28 20:28 37.46656 26.19463 18935 ft 462 kts 156°
2026-04-28 20:28 37.43712 26.21046 18184 ft 457 kts 156°
2026-04-28 20:29 37.40807 26.22612 17375 ft 452 kts 156°
2026-04-28 20:29 37.37944 26.24183 16611 ft 447 kts 155°
2026-04-28 20:29 37.35114 26.25763 15876 ft 442 kts 155°
2026-04-28 20:29 37.32327 26.27338 15203 ft 436 kts 155°
2026-04-28 20:30 37.29575 26.28902 14533 ft 432 kts 155°
2026-04-28 20:30 37.26853 26.30451 13864 ft 428 kts 155°
2026-04-28 20:30 37.24152 26.31978 13131 ft 424 kts 155°
2026-04-28 20:30 37.21473 26.33487 12410 ft 419 kts 155°
2026-04-28 20:31 37.18827 26.34974 11686 ft 415 kts 155°
2026-04-28 20:31 37.16201 26.36445 10935 ft 411 kts 155°
2026-04-28 20:31 37.13594 26.37903 10210 ft 408 kts 155°
2026-04-28 20:31 37.11017 26.39340 9414 ft 404 kts 155°
2026-04-28 20:32 37.08460 26.40766 8616 ft 400 kts 155°
2026-04-28 20:32 37.05915 26.42184 8168 ft 399 kts 155°
2026-04-28 20:32 37.03385 26.43599 7997 ft 399 kts 154°
2026-04-28 20:32 37.00850 26.45021 8028 ft 399 kts 155°
2026-04-28 20:33 36.98324 26.46440 7848 ft 394 kts 154°
2026-04-28 20:33 36.95878 26.47810 7593 ft 371 kts 155°
2026-04-28 20:33 36.93623 26.49066 7312 ft 340 kts 155°
2026-04-28 20:33 36.91585 26.50412 6708 ft 324 kts 145°
2026-04-28 20:34 36.89846 26.52138 5931 ft 316 kts 134°
2026-04-28 20:34 36.88410 26.54188 5229 ft 313 kts 123°
2026-04-28 20:34 36.87297 26.56502 5015 ft 309 kts 113°
2026-04-28 20:34 36.86424 26.58955 4934 ft 310 kts 114°
2026-04-28 20:35 36.85237 26.61174 4948 ft 304 kts 124°
2026-04-28 20:35 36.83981 26.63287 4945 ft 303 kts 125°
2026-04-28 20:35 36.82725 26.65392 4947 ft 300 kts 125°
2026-04-28 20:35 36.81477 26.67484 4947 ft 301 kts 124°
2026-04-28 20:36 36.80236 26.69559 4941 ft 296 kts 123°
2026-04-28 20:36 36.78998 26.71625 4942 ft 299 kts 124°
2026-04-28 20:36 36.77753 26.73701 4943 ft 298 kts 124°
2026-04-28 20:36 36.76512 26.75767 4939 ft 297 kts 125°
2026-04-28 20:37 36.75278 26.77825 4936 ft 296 kts 125°
2026-04-28 20:37 36.74063 26.79848 4933 ft 296 kts 124°
2026-04-28 20:37 36.72827 26.81905 4935 ft 296 kts 124°
2026-04-28 20:37 36.71579 26.83984 4703 ft 295 kts 124°
2026-04-28 20:38 36.70368 26.86003 4243 ft 293 kts 123°
2026-04-28 20:38 36.69240 26.88077 3960 ft 284 kts 116°
2026-04-28 20:38 36.68390 26.90214 3945 ft 265 kts 114°
2026-04-28 20:38 36.67599 26.92196 3952 ft 247 kts 114°
2026-04-28 20:39 36.66855 26.94045 3950 ft 231 kts 114°
2026-04-28 20:39 36.66155 26.95784 3959 ft 221 kts 114°
2026-04-28 20:39 36.65470 26.97493 4003 ft 220 kts 113°
2026-04-28 20:39 36.64788 26.99199 3966 ft 220 kts 114°
2026-04-28 20:40 36.64108 27.00902 3960 ft 219 kts 114°
2026-04-28 20:40 36.63427 27.02599 3954 ft 220 kts 114°
2026-04-28 20:40 36.62743 27.04298 3955 ft 220 kts 114°
2026-04-28 20:40 36.62059 27.05999 3954 ft 220 kts 114°
2026-04-28 20:41 36.61430 27.07733 3951 ft 218 kts 103°
2026-04-28 20:41 36.61305 27.09587 3957 ft 214 kts 87°
2026-04-28 20:41 36.61309 27.11407 3725 ft 207 kts 87°
2026-04-28 20:41 36.61318 27.13196 3326 ft 206 kts 86°
2026-04-28 20:42 36.61328 27.14971 2931 ft 204 kts 86°
2026-04-28 20:42 36.61338 27.16701 2572 ft 202 kts 85°
2026-04-28 20:42 36.61349 27.18440 2510 ft 203 kts 86°
2026-04-28 20:42 36.61401 27.20213 2549 ft 201 kts 74°
2026-04-28 20:43 36.62244 27.21462 2566 ft 194 kts 19°
2026-04-28 20:43 36.63562 27.21765 2557 ft 194 kts 357°
2026-04-28 20:43 36.64883 27.21424 2566 ft 196 kts 340°
2026-04-28 20:43 36.66038 27.20533 2576 ft 198 kts 314°
2026-04-28 20:44 36.66733 27.19168 2559 ft 181 kts 298°
2026-04-28 20:44 36.66960 27.17691 2474 ft 173 kts 263°
2026-04-28 20:44 36.66459 27.16368 2311 ft 172 kts 223°
2026-04-28 20:44 36.65379 27.15901 2134 ft 169 kts 161°
2026-04-28 20:45 36.64519 27.16955 2037 ft 191 kts 99°
2026-04-28 20:45 36.64705 27.18577 2107 ft 195 kts 58°
2026-04-28 20:45 36.65645 27.19761 2149 ft 193 kts 30°
2026-04-28 20:45 36.66906 27.20267 2163 ft 192 kts
2026-04-28 20:46 36.68120 27.19687 2188 ft 196 kts 314°
2026-04-28 20:46 36.68737 27.18152 2069 ft 200 kts 295°
2026-04-28 20:46 36.69462 27.16754 1874 ft 184 kts 320°
2026-04-28 20:46 36.70484 27.15989 1709 ft 161 kts 339°
2026-04-28 20:47 36.71443 27.15499 1612 ft 138 kts 336°
2026-04-28 20:47 36.72257 27.14835 1626 ft 141 kts 322°
2026-04-28 20:47 36.72994 27.14034 1574 ft 139 kts 329°
2026-04-28 20:47 36.73842 27.13464 1507 ft 138 kts 334°
2026-04-28 20:48 36.74646 27.12833 1375 ft 139 kts 327°
2026-04-28 20:48 36.75457 27.12160 1262 ft 139 kts 334°
2026-04-28 20:48 36.76289 27.11587 1009 ft 137 kts 329°
2026-04-28 20:48 36.77086 27.10949 780 ft 135 kts 332°
2026-04-28 20:49 36.77891 27.10325 564 ft 132 kts 331°
2026-04-28 20:49 36.78670 27.09724 406 ft 132 kts 330°
2026-04-28 20:49 36.79374 27.09186 409 ft 116 kts 332°
2026-04-28 20:49 36.80224 27.08529 678 ft 165 kts 328°
2026-04-28 20:50 36.81261 27.07708 1316 ft 192 kts 324°
2026-04-28 20:50 36.82206 27.06409 1884 ft 215 kts 294°
2026-04-28 20:50 36.82163 27.04440 2126 ft 262 kts 246°
2026-04-28 20:50 36.80757 27.02637 2067 ft 319 kts 204°
2026-04-28 20:51 36.78496 27.02449 2200 ft 355 kts 162°
2026-04-28 20:51 36.76387 27.03989 2462 ft 340 kts 132°
2026-04-28 20:51 36.74847 27.06079 2652 ft 317 kts 129°
2026-04-28 20:51 36.73764 27.07335 2582 ft 312 kts 137°
2026-04-28 20:52 36.71525 27.09447 2567 ft 294 kts 133°
2026-04-28 20:52 36.70357 27.11305 2830 ft 251 kts 109°
2026-04-28 20:52 36.70332 27.13121 2900 ft 186 kts 56°
2026-04-28 20:52 36.71277 27.13858 2779 ft 154 kts
2026-04-28 20:53 36.73343 27.13566 1993 ft 150 kts 341°
2026-04-28 20:53 36.74289 27.13057 1665 ft 145 kts 332°
2026-04-28 20:53 36.75127 27.12433 1405 ft 136 kts 330°
2026-04-28 20:54 36.75936 27.11838 1115 ft 134 kts 329°
2026-04-28 20:54 36.76731 27.11229 864 ft 134 kts 329°
2026-04-28 20:54 36.77516 27.10619 660 ft 134 kts 328°
2026-04-28 20:54 36.78300 27.10016 467 ft 131 kts 328°
2026-04-28 20:55 36.78999 27.09468 394 ft 94 kts 329°
2026-04-28 20:55 36.79426 27.09151 405 ft 53 kts 326°
2026-04-28 20:55 36.79679 27.08971 409 ft 33 kts 357°
2026-04-28 20:55 36.79879 27.08986 412 ft 25 kts
2026-04-28 20:56 36.80025 27.08916 414 ft 23 kts 333°
2026-04-28 20:56 36.80125 27.08873 412 ft 7 kts 25°
2026-04-28 20:56 36.80131 27.08891 414 ft 4 kts 75°
2026-04-28 20:56 36.80140 27.08909 416 ft 0 kts 57°